User: anonymous   Login
Location: Le Gr�zie
(43.6000°N, 13.5000°E)
Time: 13:44:24
(UTC+00:00)
Language:

Spot 2 Rocket - Orbit

View from above orbital plane
View from above orbital plane
View from above satellite
View from above satellite

Ground track
Ground track

The orbit data is extracted from the following two-line orbital elements,

1 20443U 90005H   20192.12549044  .00000002  00000-0  15534-4 0  9994
2 20443  98.5744 253.9113 0009205 275.9613  84.0525 14.38092224595632
Epoch (UTC): 10 July 2020 03:00:42
Eccentricity: 0.0009205
inclination: 98.5744°
perigee height: 758 km
apogee height: 771 km
right ascension of ascending node: 253.9113°
argument of perigee: 275.9613°
revolutions per day: 14.38092224
mean anomaly at epoch: 84.0525°
orbit number at epoch: 59563

The dashed part of the orbit path shows where the satellite is in the earth's shadow,  

DLR